Terminal Aerodrome Forecast
Issued by NWS Miami, FL

Home | Current Version | Previous Version | Text Only | Print | Product List | Glossary On
Versions: 1 2 3 4 5 6 7 8 9 10 11 12 13 14 15 16 17 18 19 20 21 22 23 24 25 26 27 28 29 30 31 32 33 34 35 36 37 38 39 40 41 42 43 44 45 46 47 48 49 50
000
FTUS42 KMFL 060145 AAB
TAFAPF
TAF AMD
KAPF 060145Z 0602/0624 VRB04KT 1 1/2SM TSRA OVC035CB
     FM060210 VRB03KT P6SM VCTS SCT035CB BKN080 OVC200
     FM060300 VRB03KT P6SM VCSH FEW040 BKN250
     FM061400 11007KT P6SM SCT025 SCT250=

USA.gov is the U.S. government's official web portal to all federal, state and local government web resources and services.